Simultaneous Nadir Overpasses (SNOs) Predictions

Prediction of SNOs between GOES-17 and NOAA-19 Satellite Orbit:

Table of predicted SNOs for the next 14.0 days since TLE Epoch: 10/4/2019
Index Date Time (GOES-17) GOES-17 Lat,Lon NOAA-19 Lat,Lon Distance(km) Time Diff (sec)
1 10/05/2019 14:34:59 -0.01,-137.20 0.79,-140.53 380.90 80
2 10/06/2019 14:26:01 -0.01,-137.21 0.12,-137.69 55.80 80
3 10/07/2019 14:14:22 -0.01,-137.21 -0.55,-134.85 269.04 80
4 10/10/2019 02:35:37 0.02,-137.21 -0.60,-139.88 305.13 80
5 10/11/2019 02:21:19 0.02,-137.20 0.08,-137.04 19.74 80
6 10/12/2019 02:09:39 0.02,-137.20 0.71,-134.19 344.05 80
7 10/14/2019 14:30:36 -0.01,-137.19 0.45,-139.14 222.40 80
8 10/15/2019 14:21:38 -0.01,-137.19 -0.22,-136.30 101.67 80
9 10/16/2019 14:09:59 0.00,-137.18 -0.89,-133.46 425.66 80
10 10/18/2019 02:40:10 -0.02,-137.16 -0.96,-141.31 473.95 80




NCC Satellite Simultaneous Nadir Overpasses (SNOs) Prediction Service
